Location: Newport
(44.6370°N, 124.0520°W)
Time: 10:44:26
(UTC-07:00)

Vanguard 2 - Visible Passes

Search period start: 19 April 2018 00:00
Search period end: 29 April 2018 00:00
Orbit: 553 x 2939 km, 32.9° (Epoch: 18 April)

Date Brightness Start Highest point End Pass type
(mag) Time Alt. Az. Time Alt. Az. Time Alt. Az.
21 Apr 10.4 21:21:28 10° S 21:24:06 11° SSE 21:25:03 11° SSE visible
22 Apr 10.1 21:36:09 10° SSW 21:42:05 16° SSE 21:43:04 16° SSE visible
22 Apr 10.6 23:43:53 10° SW 23:44:33 12° SW 23:44:33 12° SW visible
23 Apr 9.9 21:52:22 10° SSW 22:00:03 21° SSE 22:01:00 21° SSE visible
24 Apr 10.6 00:01:27 10° SW 00:02:30 13° SW 00:02:30 13° SW visible
24 Apr 9.6 22:09:13 10° SW 22:18:02 26° SSE 22:18:52 26° SSE visible
25 Apr 10.6 00:19:13 10° WSW 00:20:21 13° WSW 00:20:21 13° WSW visible
25 Apr 9.4 22:26:28 10° SW 22:35:59 30° S 22:36:37 30° SSE visible
26 Apr 10.6 00:37:07 10° WSW 00:38:06 13° WSW 00:38:06 13° WSW visible
26 Apr 10.3 20:34:39 10° SSW 20:44:37 24° SSE 20:51:54 10° ESE visible
26 Apr 9.3 22:43:59 10° SW 22:53:55 34° S 22:54:16 34° S visible
27 Apr 10.6 00:55:10 10° WSW 00:55:44 12° WSW 00:55:44 12° WSW visible
27 Apr 10.2 20:51:23 10° SW 21:02:35 29° SSE 21:10:21 10° ESE visible
27 Apr 9.2 23:01:43 10° WSW 23:11:49 37° S 23:11:49 37° S visible
28 Apr 10.0 21:08:31 10° SW 21:20:33 34° SSE 21:27:48 13° ESE visible
28 Apr 9.3 23:19:36 10° WSW 23:29:15 38° SSW 23:29:15 38° SSW visible
